SL-14 DEB, 47089

Orbit data source: Space-Track

SL-14 DEB, 47089 is space debris in LEO originally from a launch on Thu, 15 Aug 1991 UTC launched from the Plesetsk Missile And Space Complex (PKMTR). Debris objects in space refer to the collection of defunct objects orbiting the Earth. Examples of debris include non-operational satellites, rocket bodies, and fragments generated from explosions, collisions, or faulty payload assembly.

Loading next visibility...
SL-14 DEB details
Identifier
47089, 1991-056DP
Orbit
LEO
Last TLE update23 hours ago
Origin
Flag of CISRosgidromet (CIS)
ManufacturerUnknown
MissionSpacecraft
Bus & MotorUnknown
MassUnknown
Launch date (UTC)
1991-08-15 (33 years ago)
Launch vehicleUnknown
Launch site
Plesetsk Missile And Space Complex (PKMTR)
Object type
Payload
Rocket body
Debris
Shape & HBRUnknown
Radar Cross SectionSmall (<0.1 m²)

Expand to show TLE details & history

TLE from 23 hours ago
0 SL-14 DEB
1 47089U 91056DP  24339.18863965  .00000149  00000-0  23445-3 0  9991
2 47089  82.5991 135.2195 0186084 251.9511 106.1273 13.38300894199470
Epoch: 2024-12-04T04:31Z
Definitive object data (Epoch: 2024-12-04T04:31:38.465Z)
Latitude-0°
Longitude-6.17814°
Altitude1,159.572 km
Speed7.253 km/s
True Right ascension09h 00m 52s
True Declination0° 00' 00"
Sunlit
Object was in daylight at TLE epoch
Visualization TLE readout
Latitude30.38699°
Longitude-2.54557°
Altitude1,227.061 km
Speed7.191 km/s
Apparent Right ascension11h 13m 07s
Apparent Declination-1° 28' 42"
Sunlit
Object is in daylight
Visualization observer readout
Local Sidereal Time01:57:50
Azimuth54.879° ENE
Elevation-36.413°
Doppler factor1
Orbital elements
Apogee altitude1,252.222 km
Perigee altitude973.432 km
Semi-major axis7,490.964 km
Eccentricity0.0186084
Inclination82.5991°
RAAN135.2195°
Arg. of periapsis251.9511°
True anomaly108.16217°
Mean anomaly106.1273°
Eccentric anomaly107.1461°
Mean motion3.34762 °/min
BSTAR0.00023445
Orbital period107.54 mins
Loading maneuver chart data...
Loading historical data...
Loading historical data...
Loading historical data...
Loading historical data...
Loading historical data...
Loading historical data...
Loading historical data...

SL-14 DEB Visibility forecast

Observer location: undefined°, undefined

Span
Click to sort rows by Start time (UTC) header in descending order
Start Az.
Max El. time (UTC)
Max El. Az.
Max El.
End time (UTC)
End Az.
5 mins2024-12-05 09:24:30.745Z96.366° ESE2024-12-05 09:26:30.745Z80.182° E12.519°2024-12-05 09:29:30.745Z55.873° ENE
13 mins2024-12-05 11:08:30.745Z178.484° S2024-12-05 11:14:30.745Z57.376° ENE44.179°2024-12-05 11:21:30.745Z10.187° NNE
9 mins2024-12-05 12:59:30.745Z258.464° W2024-12-05 13:03:30.745Z295.202° NW18.723°2024-12-05 13:08:30.745Z337.421° NNW
6 mins2024-12-05 20:38:30.745Z39.401° NE2024-12-05 20:41:30.745Z66.777° ENE15.118°2024-12-05 20:44:30.745Z93.522° ESE
13 mins2024-12-05 22:24:30.745Z352.459° N2024-12-05 22:30:30.745Z350.169° N44.919°2024-12-05 22:37:30.745Z174.686° S
4 mins2024-12-06 00:16:30.745Z295.725° NW2024-12-06 00:17:30.745Z286.734° WNW13.703°2024-12-06 00:20:30.745Z259.81° W
|